Home > Time Zones > World Clock > Weather > Belgium > Spa > Past weeks

Flag for Belgium Weather past 2 weeks in Spa, Belgium

32 °F

Ice fog.

Feels Like: 24 °F
Forecast: 33 / 40 °F
Wind: 9 mph from Northeast

Location: Elsenborn

Current Time: Oct 14, 2015 at 1:22:53 AM

Latest Report: Oct 14, 2015 at 12:25 AM

Visibility: 1 mi

Pressure: 30.04 "Hg

Humidity: 100%

Dew point: 32 °F

Location of SpaLocation

Historic Weather in Spa — Graph


Spa temperature yesterday

Maximum temperature yesterday: 43 °F (at 12:25 PM)
Minimum temperature yesterday: 27 °F (at 2:55 AM)
Average temperature yesterday: 33 °F

Past Weeks' High & Low Weather Summary

High63 °F (Oct 2, 2:25 PM)100% (Sep 29, 4:55 AM)30.57 "Hg (Sep 29, 4:55 AM)
Low27 °F (Oct 13, 2:55 AM)32% (Oct 12, 12:55 PM)29.62 "Hg (Oct 6, 2:25 AM)
Average47 °F86%30.08 "Hg
* Reported Sep 28 11:55 PM — Oct 13 11:25 PM, Spa, Weather by CustomWeather, © 2015

Note: Actual official high and low records may vary slightly from our data, if they occured in-between our weather recording intervals... More about our weather records


Spa weather history for previous 24 hours

Time TempWeatherWind HumidityBarometerVisibility
11:25 PM
Tue, Oct 13
32 °FFog.8 mph100%30.04 "Hg1 mi
10:55 PM32 °FFog.8 mph100%30.04 "Hg0 mi
10:25 PM32 °FFog.8 mph100%30.04 "Hg1 mi
9:55 PM32 °FFog.10 mph100%30.04 "Hg1 mi
9:25 PM34 °FLight rain. Dense fog.8 mph100%30.04 "Hg0 mi
8:55 PM34 °FFog.7 mph100%30.04 "Hg0 mi
8:25 PM34 °FFog.9 mph100%30.04 "Hg1 mi
7:55 PM34 °FFog.8 mph100%30.04 "Hg1 mi
7:25 PM34 °FFog.9 mph100%30.04 "Hg0 mi
6:55 PM34 °FFog.8 mph100%30.01 "Hg0 mi
6:25 PM34 °FFog.9 mph100%30.01 "Hg0 mi
5:55 PM34 °FFog.7 mph100%30.01 "Hg1 mi
5:25 PM34 °FFog.8 mph100%30.01 "Hg1 mi
4:55 PM36 °FFog.8 mph93%29.98 "Hg1 mi
4:25 PM36 °FFog.8 mph93%29.98 "Hg1 mi
4:03 PM36 °FFog.7 mph93%29.98 "Hg1 mi
3:25 PM36 °FFog.8 mph93%29.98 "Hg2 mi
2:55 PM37 °FFog.8 mph93%29.98 "Hg3 mi
2:25 PM39 °FScattered clouds.10 mph81%29.98 "Hg4 mi
1:55 PM41 °FScattered clouds.12 mph76%29.98 "HgN/A
1:25 PM43 °FScattered clouds.12 mph76%29.95 "HgN/A
12:55 PM43 °FBroken clouds.8 mph71%29.95 "HgN/A
12:25 PM43 °FPartly sunny.6 mph76%29.95 "HgN/A
11:55 AM41 °FPartly sunny.6 mph81%29.95 "HgN/A
11:25 AM41 °FPartly sunny.5 mph81%29.95 "Hg5 mi
10:55 AM39 °FBroken clouds.3 mph87%29.95 "Hg4 mi
10:25 AM39 °FFog.5 mph93%29.95 "Hg2 mi
9:55 AM37 °FFog.1 mph93%29.95 "Hg2 mi
9:25 AM36 °FFog.1 mph93%29.92 "Hg2 mi
8:55 AM30 °FIce fog.2 mph100%29.92 "Hg2 mi
8:25 AM30 °FIce fog.1 mph93%29.92 "Hg3 mi
7:55 AM30 °FIce fog.1 mph100%29.92 "Hg2 mi
7:25 AM32 °FIce fog.3 mph100%29.92 "Hg2 mi
7:03 AM32 °FIce fog.2 mph93%29.92 "Hg3 mi
6:25 AM30 °FIce fog.3 mph100%29.92 "Hg3 mi
5:55 AM30 °FIce fog.3 mph100%29.92 "Hg2 mi
5:25 AM27 °FIce fog.2 mph100%29.92 "Hg3 mi
5:03 AM28 °FPassing clouds.1 mph93%29.92 "Hg2 mi
4:55 AM28 °FPassing clouds.1 mph93%29.92 "Hg6 mi
4:25 AM27 °FIce fog.1 mph100%29.92 "Hg3 mi
3:55 AM27 °FChilly.No wind93%29.95 "Hg5 mi
3:25 AM28 °FChilly.1 mph93%29.95 "Hg3 mi
3:03 AM27 °FChilly.1 mph93%29.95 "Hg4 mi
2:55 AM27 °FChilly.1 mph100%29.95 "Hg5 mi
2:25 AM28 °FChilly.2 mph93%29.95 "Hg4 mi
1:55 AM28 °FChilly.2 mph93%29.95 "Hg4 mi
1:25 AM28 °FChilly.No wind93%29.98 "Hg4 mi
Weather by CustomWeather, © 2015

See weather overviewHow to use our weather pages